Location: ????????
(60.5616°N, 46.8254°E)
Time: 18:38:05
(UTC+00:00)

Meteor 1-27 Rocket - Pass Details

Date: 18 February 2020
Orbit: 830 x 910 km, 81.3° (Epoch: 05 April)

Event Time Altitude Azimuth Distance (km) Brightness Sun altitude
Rises 16:03:47 0° 342° (NNW) 3,392 7.2 -17.1°
Reaches altitude 10° 16:06:12 10° 339° (NNW) 2,453 6.5 -17.4°
Maximum altitude 16:11:40 62° 260° (W) 939 4.2 -18.1°
Drops below altitude 10° 16:17:07 10° 181° (S) 2,456 6.0 -18.8°
Sets 16:19:33 0° 179° (S) 3,396 6.7 -19.1°
